Location: Focicchia
(42.2496°N, 9.2935°E)
Time: 22:56:59
(UTC+00:00)

Cosmos 1400 Rocket - Pass Details

Date: 07 June 2020
Orbit: 522 x 568 km, 81.2° (Epoch: 14 July)

Event Time Altitude Azimuth Distance (km) Brightness Sun altitude
Rises 01:38:46 0° 334° (NNW) 2,777 6.8 -17.7°
Reaches altitude 10° 01:41:25 10° 317° (NW) 1,873 5.7 -17.4°
Maximum altitude 01:44:24 19° 271° (W) 1,359 4.5 -17.1°
Enters shadow 01:44:31 19° 268° (W) 1,359 4.5 -17.1°
